15min,AgWx,beryljct,423,29MAR2020:00:00:00,35.2,12.87,33.3,34.5,35.7,36.8,34.0,60,68,55,0.427,23.2,24.7,22.2,0.636,0.4,70,24,2.3,-0.00023,-0.00034,38.5,40.0,25,0,.,.,11.20,0.00,0.00
15min,AgWx,beryljct,423,29MAR2020:00:15:00,34.7,12.85,33.6,32.7,34.0,35.0,32.7,67,74,63,0.465,24.1,25.6,23.3,3.179,2.5,87,8.9,4.2,-0.00007,-0.00007,38.5,40.0,25,0,.,.,11.20,0.00,0.00
15min,AgWx,beryljct,423,29MAR2020:00:30:00,34.3,12.84,32.6,32.7,32.5,33.0,31.9,77,79,74,0.485,26.0,26.5,25.3,2.411,1.7,129,33,3.0,-0.00013,-0.00016,38.4,40.0,25,0,.,.,11.20,0.00,0.00
15min,AgWx,beryljct,423,29MAR2020:00:45:00,34.2,12.84,33.7,34.6,33.7,34.8,32.7,72,79,66,0.451,25.7,27.0,24.5,0,1.1,240,3.6,3.6,-0.00016,-0.00022,38.3,40.0,25,0,.,.,11.20,0.00,0.00
15min,AgWx,beryljct,423,29MAR2020:01:00:00,34.2,12.83,37.0,35.4,34.8,35.9,34.0,67,72,61,0.459,25.0,26.0,23.6,0,0.5,6.2,11,1.7,-0.00021,-0.00031,38.3,39.9,25,0,.,.,11.20,0.00,0.00
15min,AgWx,beryljct,423,29MAR2020:01:15:00,34.3,12.81,36.2,35.3,34.2,36.0,32.9,70,79,60,0.440,25.5,27.1,23.5,1.622,1.6,293,15,2.9,-0.00013,-0.00016,38.2,39.9,25,0,.,.,11.21,0.00,0.00
15min,AgWx,beryljct,423,29MAR2020:01:30:00,34.5,12.81,35.0,34.5,35.4,36.0,34.4,63,70,59,0.475,24.1,25.8,23.1,1.469,2.2,258,42,3.8,-0.00008,-0.00008,38.1,39.9,25,0,.,.,11.20,0.00,0.00
15min,AgWx,beryljct,423,29MAR2020:01:45:00,34.7,12.8,36.4,34.9,34.8,35.3,33.8,69,74,66,0.494,25.8,26.8,24.9,4.187,2.1,211,32,4.2,-0.00010,-0.00012,38.0,39.9,26,0,.,.,11.21,0.00,0.00
15min,AgWx,beryljct,423,29MAR2020:02:00:00,35.2,12.79,38.2,37.6,36.2,37.7,34.9,65,72,59,0.452,25.5,26.8,24.4,4.143,3.5,203,16,5.0,-0.00002,-0.00000,38.0,39.9,25,0,.,.,11.21,0.00,0.00
15min,AgWx,beryljct,423,29MAR2020:02:15:00,36.4,12.77,39.3,39.1,38.8,39.3,37.7,56,59,54,0.448,24.4,24.9,23.8,6.335,7.6,197,11,11.1,0.00017,0.00022,38.0,39.9,25,0,.,.,11.20,0.00,0.00
15min,AgWx,beryljct,423,29MAR2020:02:30:00,37.4,12.76,38.9,38.7,38.8,39.1,38.6,56,57,55,0.451,24.7,24.9,24.5,3.814,4.7,203,10,7.3,0.00008,0.00012,37.9,39.9,25,0,.,.,11.20,0.00,0.00
15min,AgWx,beryljct,423,29MAR2020:02:45:00,37.9,12.77,38.3,37.8,38.2,39.0,37.3,59,63,55,0.464,25.0,25.8,24.2,1.929,2.8,170,23,6.3,-0.00003,-0.00002,37.8,39.9,25,0,.,.,11.21,0.00,0.00
15min,AgWx,beryljct,423,29MAR2020:03:00:00,37.9,12.76,39.3,39.2,38.5,39.8,37.6,56,60,51,0.425,24.2,25.2,22.9,2.389,2.8,199,21,7.9,-0.00002,-0.00000,37.8,39.8,25,0,.,.,11.21,0.00,0.00
15min,AgWx,beryljct,423,29MAR2020:03:15:00,37.9,12.76,38.9,38.3,38.6,39.3,37.4,55,60,52,0.437,23.7,24.8,23.0,1.447,2.3,203,49,3.5,-0.00005,-0.00005,37.8,39.8,25,0,.,.,11.20,0.00,0.00
15min,AgWx,beryljct,423,29MAR2020:03:30:00,37.4,12.75,35.5,35.5,38.2,38.9,35.5,55,66,53,0.461,23.4,25.1,22.8,0,0.2,115,9.0,1.5,-0.00027,-0.00042,37.7,39.8,25,0,.,.,11.20,0.00,0.00
15min,AgWx,beryljct,423,29MAR2020:03:45:00,36.8,12.75,36.4,35.8,35.7,36.3,35.0,65,68,62,0.460,25.1,25.8,24.5,0.373,0.2,99,6.6,1.1,-0.00025,-0.00039,37.7,39.8,25,0,.,.,11.21,0.00,0.00
15min,AgWx,beryljct,423,29MAR2020:04:00:00,36.2,12.74,34.1,34.4,35.1,35.8,34.4,67,72,64,0.487,25.4,26.5,24.7,0.658,0.2,132,20,2.1,-0.00025,-0.00038,37.6,39.8,25,0,.,.,11.20,0.00,0.00
15min,AgWx,beryljct,423,29MAR2020:04:15:00,35.5,12.74,35.8,35.0,34.1,35.0,33.5,73,77,68,0.468,26.4,27.3,25.3,0,1.0,214,76,2.7,-0.00017,-0.00024,37.6,39.7,25,0,.,.,11.21,0.00,0.00
15min,AgWx,beryljct,423,29MAR2020:04:30:00,35.1,12.72,35.9,35.1,34.7,35.3,34.2,70,72,67,0.469,25.7,26.3,25.1,1.841,2.1,297,17,3.6,-0.00010,-0.00012,37.6,39.7,25,0,.,.,11.20,0.00,0.00
15min,AgWx,beryljct,423,29MAR2020:04:45:00,35.0,12.73,35.6,35.8,35.9,36.5,35.1,63,68,61,0.453,24.7,25.6,24.1,2.609,2.1,288,19,3.9,-0.00008,-0.00009,37.5,39.7,25,0,.,.,11.21,0.00,0.00
15min,AgWx,beryljct,423,29MAR2020:05:00:00,34.6,12.72,32.0,32.3,33.8,35.8,32.3,72,79,64,0.488,25.7,26.5,24.6,3.223,2.8,277,21,3.5,-0.00007,-0.00007,37.5,39.7,25,0,.,.,11.21,0.00,0.00
15min,AgWx,beryljct,423,29MAR2020:05:15:00,33.9,12.72,32.5,32.1,32.3,32.7,31.9,79,82,77,0.480,26.6,27.3,26.0,2.477,2.7,337,10,3.6,-0.00009,-0.00010,37.4,39.7,25,0,.,.,11.20,0.00,0.00
15min,AgWx,beryljct,423,29MAR2020:05:30:00,33.4,12.71,33.4,33.1,32.7,33.3,32.0,76,80,74,0.474,26.1,26.7,25.7,1.074,2.0,2.9,14,2.9,-0.00011,-0.00014,37.4,39.6,25,0,.,.,11.21,0.00,0.00
15min,AgWx,beryljct,423,29MAR2020:05:45:00,33.4,12.72,33.7,33.1,32.9,33.2,32.6,76,77,74,0.478,26.1,26.3,25.8,2.477,0.9,352,13,2.5,0.00005,0.00008,37.3,39.6,25,0,.,.,11.21,0.01,0.00
15min,AgWx,beryljct,423,29MAR2020:06:00:00,33.6,12.72,34.2,33.8,33.4,33.8,33.0,74,76,72,0.475,26.1,26.5,25.9,1.6,2.4,308,37,3.9,0.00011,0.00019,37.3,39.6,25,0,.,.,11.21,0.00,0.00
15min,AgWx,beryljct,423,29MAR2020:06:15:00,33.7,12.72,34.2,33.8,33.9,34.2,33.6,72,74,70,0.472,25.7,26.2,25.3,1.315,1.2,342,20,1.8,0.00007,0.00012,37.3,39.6,25,0,.,.,11.21,0.00,0.00
15min,AgWx,beryljct,423,29MAR2020:06:30:00,33.7,12.7,33.9,33.7,33.7,34.0,33.2,72,74,70,0.461,25.6,26.1,25.1,2.565,2.1,319,25,3.1,0.00012,0.00020,37.2,39.5,25,4,.,.,11.21,0.00,0.00
15min,AgWx,beryljct,423,29MAR2020:06:45:00,33.6,12.72,32.8,33.4,33.9,34.2,33.3,71,73,70,0.472,25.5,25.7,25.2,0.68,2.6,358,14,4.3,0.00020,0.00030,37.2,39.5,25,15,.,.,11.21,0.00,0.00
15min,AgWx,beryljct,423,29MAR2020:07:00:00,33.5,12.75,33.0,33.2,33.1,33.7,32.8,76,77,73,0.475,26.2,26.5,25.7,2.499,2.6,317,13,3.9,0.00023,0.00032,37.2,39.5,25,30,.,.,11.21,0.00,0.00
15min,AgWx,beryljct,423,29MAR2020:07:15:00,33.4,12.8,32.9,32.8,32.9,33.3,32.6,77,79,74,0.498,26.6,27.0,25.9,3.266,3.1,305,15,4.1,0.00037,0.00047,37.2,39.5,25,64,.,.,11.21,0.00,0.00
15min,AgWx,beryljct,423,29MAR2020:07:30:00,33.6,12.87,33.1,33.2,33.1,33.3,32.7,80,82,79,0.524,27.5,28.2,26.9,2.565,2.8,335,9.5,3.8,0.00050,0.00060,37.1,39.5,25,111,.,.,11.21,0.00,0.00
15min,AgWx,beryljct,423,29MAR2020:07:45:00,34.1,12.91,35.4,34.7,33.7,34.7,33.0,82,84,74,0.505,28.6,29.2,27.3,3.135,2.4,324,5.1,3.9,0.00060,0.00069,37.1,39.4,25,139,.,.,11.21,0.00,0.00
15min,AgWx,beryljct,423,29MAR2020:08:00:00,34.9,13.12,36.0,35.6,35.1,35.6,34.7,74,76,71,0.506,27.5,28.1,26.8,3.683,3.5,325,7.8,5.0,0.00084,0.00100,37.1,39.4,25,194,.,.,11.21,0.00,0.00
15min,AgWx,beryljct,423,29MAR2020:08:15:00,36.6,13.55,37.1,37.3,36.4,37.3,35.6,70,72,68,0.522,27.4,28.1,27.0,4.998,3.4,325,10,5.2,0.00122,0.00143,37.0,39.4,25,298,.,.,11.21,0.00,0.00
15min,AgWx,beryljct,423,29MAR2020:08:30:00,38.8,14.64,37.6,37.6,37.4,37.7,37.1,68,70,66,0.513,27.7,28.4,27.0,6.226,5.0,328,10,6.9,0.00148,0.00176,37.0,39.4,25,362,.,.,11.21,0.00,0.00
15min,AgWx,beryljct,423,29MAR2020:08:45:00,40.8,14.61,38.4,38.3,37.9,38.7,37.5,68,69,66,0.516,28.2,29.4,27.4,4.56,4.9,333,15,6.5,0.00175,0.00204,37.0,39.4,25,433,.,.,11.21,0.00,0.00
15min,AgWx,beryljct,423,29MAR2020:09:00:00,41.8,14.6,39.0,38.7,38.4,38.7,38.0,66,68,64,0.530,28.1,29.1,26.9,3.266,4.0,331,13,6.0,0.00127,0.00151,37.0,39.3,25,267,.,.,11.20,0.00,0.00
15min,AgWx,beryljct,423,29MAR2020:09:15:00,43.2,14.62,39.8,40.1,39.4,40.1,38.8,65,67,62,0.525,28.5,29.2,27.6,2.126,3.4,358,21,5.1,0.00239,0.00270,37.0,39.3,25,577,.,.,11.21,0.00,0.00
15min,AgWx,beryljct,423,29MAR2020:09:30:00,46.0,14.56,41.8,42.2,40.9,42.2,40.0,62,65,59,0.562,29.0,30.3,28.1,4.472,2.4,0.2,33,5.0,0.00304,0.00336,37.0,39.3,25,710,.,.,11.20,0.00,0.00
15min,AgWx,beryljct,423,29MAR2020:09:45:00,48.0,14.5,41.7,41.7,42.0,42.7,41.4,59,61,57,0.516,28.8,29.9,27.8,2.236,2.4,83,25,4.9,0.00176,0.00201,37.1,39.3,25,352,.,.,11.20,0.00,0.00
15min,AgWx,beryljct,423,29MAR2020:10:00:00,48.1,14.47,42.6,43.0,42.3,43.1,41.7,58,60,56,0.548,28.5,29.6,27.4,6.379,3.3,111,20,6.4,0.00185,0.00216,37.2,39.3,25,369,.,.,11.20,0.00,0.00
15min,AgWx,beryljct,423,29MAR2020:10:15:00,48.1,14.5,43.4,43.6,43.1,43.7,42.5,56,60,53,0.540,28.5,30.6,27.2,4.932,5.3,139,19,8.9,0.00203,0.00245,37.4,39.2,25,397,.,.,11.20,0.00,0.00
15min,AgWx,beryljct,423,29MAR2020:10:30:00,48.0,14.5,44.1,44.3,43.9,44.4,43.4,54,57,50,0.520,28.4,29.6,26.7,6.862,6.7,152,11,10.0,0.00213,0.00264,37.7,39.2,25,406,.,.,11.20,0.00,0.00
15min,AgWx,beryljct,423,29MAR2020:10:45:00,48.4,14.48,45.1,45.5,44.8,45.7,44.2,50,54,46,0.518,27.4,29.4,24.6,8.75,7.8,155,28,17.1,0.00260,0.00324,38.0,39.2,25,510,.,.,11.20,0.00,0.00
15min,AgWx,beryljct,423,29MAR2020:11:00:00,48.7,14.49,45.0,45.2,45.0,45.5,44.3,48,51,45,0.486,26.6,28.1,24.3,11.22,9.2,172,18,12.9,0.00230,0.00300,38.2,39.2,25,401,.,.,11.19,0.00,0.00
15min,AgWx,beryljct,423,29MAR2020:11:15:00,48.7,14.5,45.8,45.2,45.1,45.5,44.7,48,50,44,0.489,26.4,27.8,24.3,10.24,8.6,197,12,14.1,0.00224,0.00292,38.5,39.2,25,383,.,.,11.19,0.00,0.00
15min,AgWx,beryljct,423,29MAR2020:11:30:00,48.8,14.09,44.8,45.1,45.3,45.8,44.9,47,50,44,0.463,26.5,28.3,24.2,7.147,9.5,195,14,15.2,0.00228,0.00300,38.7,39.2,25,384,.,.,11.19,0.00,0.00
15min,AgWx,beryljct,423,29MAR2020:11:45:00,48.7,14.06,45.6,45.6,45.2,45.7,44.8,48,52,44,0.520,26.5,29.0,24.0,7.344,7.8,203,15,11.2,0.00210,0.00274,39.0,39.2,25,345,.,.,11.19,0.00,0.00
15min,AgWx,beryljct,423,29MAR2020:12:00:00,48.9,14.1,45.6,45.8,45.6,46.1,45.1,49,51,47,0.517,27.6,28.7,26.0,11.33,9.6,185,27,14.1,0.00250,0.00322,39.2,39.2,25,456,.,.,11.19,0.00,0.00
15min,AgWx,beryljct,423,29MAR2020:12:15:00,49.1,14.05,46.0,45.6,45.6,45.9,45.4,48,50,46,0.515,27.1,28.2,26.0,10.33,9.7,180,29,15.0,0.00242,0.00316,39.4,39.2,25,427,.,.,11.19,0.00,0.00
15min,AgWx,beryljct,423,29MAR2020:12:30:00,49.5,14.04,46.2,45.7,46.0,46.7,45.3,50,53,46,0.484,28.2,30.0,25.9,7.453,9.6,211,16,14.1,0.00277,0.00352,39.6,39.3,25,532,.,.,11.19,0.00,0.00
15min,AgWx,beryljct,423,29MAR2020:12:45:00,49.5,14.04,46.4,45.9,45.8,46.1,45.5,49,52,47,0.516,27.8,29.5,26.6,12.43,10.4,194,13,16.4,0.00224,0.00298,39.8,39.3,25,370,.,.,11.19,0.00,0.00
15min,AgWx,beryljct,423,29MAR2020:13:00:00,49.6,14.03,46.8,46.2,46.1,46.8,45.6,49,51,46,0.538,27.9,29.3,26.3,9.62,10.1,202,15,14.5,0.00247,0.00323,40.0,39.3,24,436,.,.,11.19,0.00,0.00
15min,AgWx,beryljct,423,29MAR2020:13:15:00,49.4,14.06,45.3,45.4,45.8,46.4,45.3,52,54,51,0.525,29.2,30.4,28.0,11.25,12.0,197,14,16.7,0.00193,0.00268,40.2,39.4,24,281,.,.,11.19,0.00,0.00
15min,AgWx,beryljct,423,29MAR2020:13:30:00,49.1,14.06,45.0,45.6,45.6,46.0,45.3,52,54,50,0.541,28.8,30.3,27.7,18.02,12.3,197,12,18.0,0.00214,0.00291,40.4,39.4,24,352,.,.,11.19,0.01,0.00
15min,AgWx,beryljct,423,29MAR2020:13:45:00,48.7,14.04,45.2,45.1,45.3,45.7,45.1,52,54,50,0.522,28.8,30.0,27.8,12.17,13.3,203,10,18.2,0.00204,0.00283,40.6,39.5,25,321,.,.,11.19,0.00,0.00
15min,AgWx,beryljct,423,29MAR2020:14:00:00,48.3,14.04,44.8,44.0,44.4,45.7,43.3,59,64,51,0.594,30.9,32.1,28.2,13.22,14.0,173,15,19.5,0.00187,0.00256,40.7,39.5,25,327,.,.,11.19,0.00,0.00
15min,AgWx,beryljct,423,29MAR2020:14:15:00,48.2,14.08,45.5,44.7,44.5,44.9,44.1,59,61,58,0.583,31.2,31.7,30.6,9.01,11.6,176,14,15.7,0.00213,0.00277,40.8,39.6,25,428,.,.,11.19,0.00,0.00
15min,AgWx,beryljct,423,29MAR2020:14:30:00,48.7,14.09,45.5,45.6,45.2,46.2,44.7,59,62,57,0.591,31.8,33.3,30.7,14.51,11.9,195,16,16.9,0.00246,0.00314,41.0,39.6,24,538,.,.,11.19,0.00,0.00
15min,AgWx,beryljct,423,29MAR2020:14:45:00,49.3,14.09,45.3,46.2,46.0,46.5,45.4,55,59,53,0.564,30.9,32.6,29.5,16.88,13.7,213,12,19.7,0.00261,0.00340,41.0,39.7,25,563,.,.,11.19,0.00,0.00
15min,AgWx,beryljct,423,29MAR2020:15:00:00,49.7,14.01,46.1,46.1,46.1,46.7,45.8,52,54,51,0.542,29.6,31.0,28.8,16.81,14.2,214,16,19.1,0.00242,0.00327,41.1,39.7,25,474,.,.,11.19,0.00,0.00
15min,AgWx,beryljct,423,29MAR2020:15:15:00,49.5,14.04,45.2,45.4,45.7,46.4,45.2,52,54,50,0.547,29.3,30.4,27.9,16.55,15.0,207,11,20.0,0.00210,0.00294,41.3,39.8,25,365,.,.,11.19,0.00,0.00
15min,AgWx,beryljct,423,29MAR2020:15:30:00,49.1,14.06,44.2,44.0,45.0,45.6,43.9,55,57,53,0.528,29.7,31.1,28.3,13.26,16.0,207,9.2,21.3,0.00196,0.00278,41.4,39.8,24,351,.,.,11.19,0.00,0.00
15min,AgWx,beryljct,423,29MAR2020:15:45:00,48.5,14.06,44.9,44.3,44.2,44.5,44.0,57,58,54,0.577,30.0,30.8,28.6,11.4,14.8,213,9.2,18.6,0.00184,0.00257,41.5,39.9,24,363,.,.,11.19,0.00,0.00
15min,AgWx,beryljct,423,29MAR2020:16:00:00,48.1,14.05,44.7,44.4,44.4,44.8,44.2,58,59,57,0.585,30.6,31.5,30.0,13.77,14.0,213,10,17.8,0.00168,0.00237,41.6,39.9,24,326,.,.,11.20,0.01,0.00
15min,AgWx,beryljct,423,29MAR2020:16:15:00,48.1,14.05,44.6,44.7,44.7,44.9,44.4,58,60,57,0.583,30.9,31.9,30.2,9.95,11.4,212,10,15.6,0.00183,0.00246,41.7,40.0,24,397,.,.,11.19,0.00,0.00
15min,AgWx,beryljct,423,29MAR2020:16:30:00,48.3,14.04,44.6,45.1,45.2,45.6,44.7,57,59,55,0.579,30.9,32.0,29.9,10.83,11.1,214,11,14.3,0.00184,0.00248,41.8,40.1,24,386,.,.,11.19,0.00,0.00
15min,AgWx,beryljct,423,29MAR2020:16:45:00,48.6,14.06,46.4,45.5,45.3,45.9,44.7,57,59,55,0.580,30.8,32.2,29.5,5.678,9.0,204,11,12.8,0.00158,0.00214,41.9,40.1,24,329,.,.,11.19,0.00,0.00
15min,AgWx,beryljct,423,29MAR2020:17:00:00,48.5,14.07,45.1,44.8,45.0,45.6,44.7,55,57,54,0.561,30.0,31.3,29.3,4.801,7.6,225,17,13.2,0.00105,0.00154,41.9,40.2,24,210,.,.,11.19,0.00,0.00
15min,AgWx,beryljct,423,29MAR2020:17:15:00,48.1,14.05,45.0,45.0,44.8,45.0,44.5,56,58,54,0.585,30.1,31.2,29.2,5.086,6.0,230,26,10.0,0.00076,0.00116,42.0,40.2,24,163,.,.,11.19,0.00,0.00
15min,AgWx,beryljct,423,29MAR2020:17:30:00,47.6,13.33,44.7,44.5,44.8,45.0,44.5,57,59,54,0.563,30.3,31.4,29.3,7.081,7.0,185,12,9.9,0.00061,0.00103,42.0,40.3,25,118,.,.,11.19,0.00,0.00
15min,AgWx,beryljct,423,29MAR2020:17:45:00,47.1,13.49,44.8,44.7,44.6,44.7,44.5,57,59,55,0.556,30.3,31.2,29.4,5.283,4.9,183,11,8.6,0.00033,0.00064,42.1,40.3,24,86,.,.,11.19,0.00,0.00
15min,AgWx,beryljct,423,29MAR2020:18:00:00,46.7,13.3,45.0,44.8,44.7,44.9,44.6,56,58,51,0.542,29.8,31.0,27.9,8.7,5.5,205,21,8.8,0.00032,0.00041,42.1,40.4,25,98,.,.,11.19,0.00,0.00
15min,AgWx,beryljct,423,29MAR2020:18:15:00,46.3,13.22,44.6,44.4,44.6,44.9,44.3,56,59,53,0.547,29.9,31.0,28.6,5.152,4.9,212,25,8.8,0.00025,0.00033,42.2,40.4,25,68,.,.,11.19,0.00,0.00
15min,AgWx,beryljct,423,29MAR2020:18:30:00,45.8,13.17,43.6,44.0,44.4,44.7,44.0,55,59,52,0.578,29.2,30.7,27.9,2.916,4.8,246,13,8.1,0.00021,0.00028,42.2,40.5,24,41,.,.,11.19,0.00,0.00
15min,AgWx,beryljct,423,29MAR2020:18:45:00,45.4,13.11,43.8,43.8,44.0,44.2,43.8,56,61,54,0.547,29.4,31.1,28.6,5.415,5.7,245,12,8.6,0.00019,0.00026,42.2,40.6,24,19,.,.,11.19,0.00,0.00
15min,AgWx,beryljct,423,29MAR2020:19:00:00,45.0,13.06,43.6,43.1,43.6,44.0,43.1,56,58,55,0.550,29.0,29.5,28.4,7.3,6.5,243,5.4,8.8,0.00020,0.00027,42.2,40.6,25,7,.,.,11.19,0.00,0.00
15min,AgWx,beryljct,423,29MAR2020:19:15:00,44.5,13.04,42.4,42.4,42.9,43.2,42.3,58,60,57,0.554,29.3,29.6,28.9,4.209,5.7,249,4.6,8.1,0.00015,0.00021,42.1,40.6,24,1,.,.,11.20,0.01,0.00
15min,AgWx,beryljct,423,29MAR2020:19:30:00,43.9,13.02,41.7,41.8,42.0,42.4,41.7,64,65,60,0.586,30.5,31.0,29.6,4.143,4.3,264,5.3,5.2,0.00006,0.00010,42.1,40.7,24,0,.,.,11.19,0.00,0.00
15min,AgWx,beryljct,423,29MAR2020:19:45:00,43.4,13.01,42.3,41.9,41.8,42.1,41.6,67,68,65,0.610,31.6,32.1,30.9,7.3,5.7,274,5.0,8.9,0.00009,0.00013,42.0,40.7,24,0,.,.,11.19,0.00,0.00
15min,AgWx,beryljct,423,29MAR2020:20:00:00,43.0,13,40.6,40.9,41.6,42.0,40.8,68,71,67,0.614,31.9,32.1,31.4,4.713,6.7,282,7.8,10.5,0.00011,0.00015,42.0,40.8,25,0,.,.,11.20,0.00,0.00
15min,AgWx,beryljct,423,29MAR2020:20:15:00,42.5,12.99,40.0,39.8,40.2,40.8,39.8,73,75,71,0.621,32.4,32.6,32.2,7.695,7.0,290,5.1,8.6,0.00008,0.00011,41.9,40.8,25,0,.,.,11.20,0.00,0.00
15min,AgWx,beryljct,423,29MAR2020:20:30:00,41.9,12.99,39.6,39.5,39.5,39.8,39.3,76,77,75,0.625,32.6,32.7,32.4,6.401,7.0,291,5.8,8.9,0.00006,0.00008,41.8,40.8,24,0,.,.,11.20,0.00,0.00
15min,AgWx,beryljct,423,29MAR2020:20:45:00,41.5,12.96,39.9,39.6,39.6,39.8,39.5,75,76,74,0.610,32.2,32.6,32.0,7.234,8.2,275,6.7,11.3,0.00009,0.00012,41.7,40.9,24,0,.,.,11.20,0.00,0.00
15min,AgWx,beryljct,423,29MAR2020:21:00:00,41.3,12.96,39.1,39.2,39.5,39.7,39.2,74,75,74,0.610,31.9,32.0,31.8,6.642,8.0,267,5.4,9.9,0.00009,0.00012,41.6,40.9,25,0,.,.,11.20,0.00,0.00
15min,AgWx,beryljct,423,29MAR2020:21:15:00,40.9,12.96,38.6,38.6,38.8,39.2,38.6,77,77,75,0.612,32.1,32.3,32.0,7.015,7.7,262,4.7,9.4,0.00007,0.00009,41.5,40.9,24,0,.,.,11.20,0.00,0.00
15min,AgWx,beryljct,423,29MAR2020:21:30:00,40.3,12.95,38.4,38.3,38.3,38.6,38.2,77,78,77,0.605,31.9,32.1,31.7,8.15,8.0,261,4.3,9.6,0.00007,0.00009,41.4,41.0,24,0,.,.,11.20,0.00,0.00
15min,AgWx,beryljct,423,29MAR2020:21:45:00,39.9,12.94,38.0,38.0,38.1,38.3,37.9,78,78,77,0.606,31.7,31.8,31.6,7.037,8.3,263,4.2,9.9,0.00007,0.00009,41.4,41.0,24,0,.,.,11.20,0.00,0.00
15min,AgWx,beryljct,423,29MAR2020:22:00:00,39.4,12.94,38.1,37.7,37.8,38.0,37.7,79,80,78,0.612,31.9,32.1,31.7,8.55,8.2,261,4.1,9.7,0.00006,0.00008,41.2,41.0,24,0,.,.,11.21,0.00,0.00
15min,AgWx,beryljct,423,29MAR2020:22:15:00,39.2,12.92,37.8,37.6,37.9,38.1,37.6,79,80,79,0.607,32.1,32.2,31.8,9.05,9.0,264,4.3,10.8,0.00006,0.00008,41.2,41.0,24,0,.,.,11.20,0.00,0.00
15min,AgWx,beryljct,423,29MAR2020:22:30:00,38.8,12.91,37.6,37.5,37.4,37.7,37.1,80,80,79,0.603,31.7,32.0,31.6,6.862,8.2,266,4.6,9.5,0.00005,0.00007,41.1,41.0,24,0,.,.,11.21,0.01,0.00
15min,AgWx,bigpiney,439,29MAR2020:00:00:00,20.8,12.75,20.2,19.8,20.3,20.8,19.8,78,80,77,0.293,14.6,15.2,14.0,1.907,2.9,8.1,15,4.3,0.00003,0.00004,31.6,31.8,14,0,0,0.0,6.04,0.00,0.00
15min,AgWx,bigpiney,439,29MAR2020:00:15:00,20.6,12.74,18.0,18.3,19.5,20.1,18.3,80,81,78,0.275,14.4,15.1,13.1,1.885,1.6,211,36,3.9,0.00000,0.00001,31.6,31.8,14,0,0,0.0,6.04,0.00,0.00
15min,AgWx,bigpiney,439,29MAR2020:00:30:00,20.4,12.73,18.2,17.9,17.6,18.3,17.0,83,86,80,0.290,13.3,14.3,12.3,0.395,2.7,169,29,5.3,0.00001,0.00002,31.6,31.7,14,0,0,0.0,6.04,0.00,0.00
15min,AgWx,bigpiney,439,29MAR2020:00:45:00,20.6,12.72,20.6,19.6,18.7,19.6,17.7,85,86,85,0.312,15.0,16.0,14.0,1.425,2.0,223,26,3.3,-0.00000,0.00000,31.6,31.7,14,0,0,0.0,6.04,0.00,0.00
15min,AgWx,bigpiney,439,29MAR2020:01:00:00,20.8,12.72,21.0,20.9,21.0,22.0,19.8,82,86,78,0.316,16.3,16.8,15.9,3.814,1.5,292,9.8,4.6,-0.00000,-0.00000,31.6,31.8,14,0,0,0.0,6.04,0.00,0.00
15min,AgWx,bigpiney,439,29MAR2020:01:15:00,21.2,12.7,20.8,20.1,20.4,20.8,19.9,85,86,82,0.320,16.5,16.8,16.2,0.351,1.8,278,79,4.8,-0.00000,0.00000,31.6,31.7,14,0,0,0.0,6.04,0.00,0.00
15min,AgWx,bigpiney,439,29MAR2020:01:30:00,21.3,12.7,19.9,19.4,19.6,20.5,19.3,86,87,84,0.312,16.1,17.2,15.5,3.683,1.5,289,27,3.8,-0.00001,-0.00001,31.6,31.8,14,0,0,0.0,6.04,0.00,0.00
15min,AgWx,bigpiney,439,29MAR2020:01:45:00,21.1,12.69,17.8,17.9,18.7,19.5,17.9,86,87,85,0.296,15.2,15.9,14.5,3.705,2.2,238,47,4.8,0.00000,0.00001,31.6,31.7,14,0,0,0.0,6.04,0.00,0.00
15min,AgWx,bigpiney,439,29MAR2020:02:00:00,20.7,12.68,18.7,18.1,17.7,18.2,17.2,88,89,87,0.305,14.8,15.5,14.1,4.187,3.2,326,14,4.6,0.00001,0.00001,31.6,31.7,14,0,0,0.0,6.04,0.00,0.00
15min,AgWx,bigpiney,439,29MAR2020:02:15:00,20.2,12.67,19.0,18.7,18.7,19.1,18.2,88,89,87,0.305,15.7,16.0,15.3,3.266,4.4,323,13,6.1,0.00001,0.00002,31.6,31.8,14,0,0,0.0,6.04,0.00,0.00
15min,AgWx,bigpiney,439,29MAR2020:02:30:00,19.8,12.67,18.1,17.8,18.1,18.7,17.7,88,89,86,0.297,15.1,15.6,14.6,2.74,1.9,332,25,3.3,-0.00001,-0.00000,31.6,31.8,14,0,0,0.0,6.04,0.00,0.00
15min,AgWx,bigpiney,439,29MAR2020:02:45:00,19.5,12.66,15.8,17.2,17.5,18.1,16.2,88,89,85,0.290,14.6,15.3,12.6,2.499,1.4,219,50,4.4,-0.00001,-0.00001,31.6,31.8,14,0,0,0.0,6.04,0.00,0.00
15min,AgWx,bigpiney,439,29MAR2020:03:00:00,19.0,12.65,17.0,17.3,16.7,17.5,16.1,88,90,86,0.290,13.7,14.6,13.0,4.538,4.3,216,8.0,5.4,0.00001,0.00002,31.6,31.7,14,0,0,0.0,6.04,0.00,0.00
15min,AgWx,bigpiney,439,29MAR2020:03:15:00,18.7,12.64,17.2,16.8,16.8,17.4,16.4,88,88,86,0.284,13.7,14.4,13.3,5.086,4.2,235,5.5,6.0,0.00001,0.00002,31.6,31.8,14,0,0,0.0,6.04,0.00,0.00
15min,AgWx,bigpiney,439,29MAR2020:03:30:00,18.5,12.63,17.7,17.1,17.0,17.3,16.8,88,89,87,0.289,14.0,14.5,13.7,1.841,3.5,252,5.2,5.3,0.00001,0.00001,31.6,31.8,14,0,0,0.0,6.04,0.00,0.00
15min,AgWx,bigpiney,439,29MAR2020:03:45:00,18.3,12.62,20.9,19.6,17.2,19.6,15.9,88,89,85,0.318,14.2,16.4,12.4,2.039,3.3,219,19,5.3,0.00001,0.00001,31.6,31.8,14,0,0,0.0,6.04,0.00,0.00
15min,AgWx,bigpiney,439,29MAR2020:04:00:00,18.2,12.61,16.4,15.9,17.6,19.8,15.4,85,87,83,0.272,13.7,16.4,11.5,4.45,3.9,191,16,6.1,0.00002,0.00003,31.6,31.7,14,0,0,0.0,6.04,0.00,0.00
15min,AgWx,bigpiney,439,29MAR2020:04:15:00,17.9,12.6,15.9,15.4,15.1,16.0,14.5,88,89,87,0.269,12.1,12.9,11.5,1.425,2.8,190,13,4.5,0.00000,0.00001,31.6,31.7,14,0,0,0.0,6.04,0.00,0.00
15min,AgWx,bigpiney,439,29MAR2020:04:30:00,17.6,12.6,14.7,15.6,15.7,16.2,15.2,87,88,85,0.262,12.6,12.9,11.9,1.929,2.4,213,31,4.6,0.00000,0.00000,31.6,31.7,14,0,0,0.0,6.04,0.00,0.00
15min,AgWx,bigpiney,439,29MAR2020:04:45:00,17.4,12.58,17.2,16.0,15.7,16.3,14.6,86,88,85,0.269,12.3,12.9,10.9,2.126,1.5,151,64,4.3,-0.00001,-0.00001,31.6,31.7,14,0,0,0.0,6.04,0.00,0.00
15min,AgWx,bigpiney,439,29MAR2020:05:00:00,17.1,12.58,16.7,16.5,16.2,16.5,15.5,86,87,84,0.272,12.6,13.1,11.6,2.192,2.2,219,32,4.3,0.00000,0.00000,31.6,31.8,14,0,0,0.0,6.04,0.00,0.00
15min,AgWx,bigpiney,439,29MAR2020:05:15:00,16.9,12.57,17.6,17.3,16.4,17.4,15.6,85,87,85,0.281,12.7,13.7,11.9,2.74,2.9,189,14,3.8,0.00001,0.00001,31.6,31.8,14,0,0,0.0,6.04,0.00,0.00
15min,AgWx,bigpiney,439,29MAR2020:05:30:00,16.7,12.55,16.1,15.5,16.2,17.3,15.5,85,86,83,0.263,12.4,13.5,11.9,0,1.7,196,6.6,3.0,-0.00000,-0.00000,31.6,31.8,14,0,0,0.0,6.04,0.00,0.00
15min,AgWx,bigpiney,439,29MAR2020:05:45:00,16.5,12.56,16.2,14.6,15.3,15.9,14.5,87,88,84,0.255,12.0,12.9,11.0,1.578,1.8,234,23,2.9,-0.00000,-0.00000,31.6,31.7,14,0,0,0.0,6.04,0.00,0.00
15min,AgWx,bigpiney,439,29MAR2020:06:00:00,16.3,12.56,13.5,13.5,14.6,15.3,13.5,86,88,85,0.241,11.2,12.3,10.1,3.683,3.2,212,13,4.3,0.00001,0.00001,31.6,31.7,14,1,0,0.0,6.04,0.00,0.00
15min,AgWx,bigpiney,439,29MAR2020:06:15:00,16.0,12.61,15.7,15.2,14.2,15.2,13.1,88,90,86,0.271,11.3,12.7,9.9,2.28,2.4,246,10,3.6,0.00001,0.00001,31.6,31.7,14,6,0,0.0,6.04,0.00,0.00
15min,AgWx,bigpiney,439,29MAR2020:06:30:00,15.9,12.73,14.7,13.8,14.5,15.5,13.4,89,90,86,0.254,11.7,13.0,10.0,0.811,1.9,238,33,3.6,-0.00016,-0.00016,31.6,31.7,14,27,0,0.0,6.04,0.00,0.00
15min,AgWx,bigpiney,439,29MAR2020:06:45:00,16.0,12.97,16.7,16.0,15.3,16.0,13.9,90,91,89,0.277,12.9,13.4,11.5,0,0.5,235,38,1.5,-0.00007,-0.00007,31.6,31.8,14,71,0,0.0,6.04,0.00,0.00
15min,AgWx,bigpiney,439,29MAR2020:07:00:00,16.4,14.54,17.0,16.3,16.6,17.3,16.1,89,90,88,0.282,13.8,14.7,13.3,0.285,0.7,11,23,2.0,0.00006,0.00007,31.6,31.8,14,111,0,0.0,6.04,0.00,0.00
15min,AgWx,bigpiney,439,29MAR2020:07:15:00,17.1,15.02,17.5,17.6,16.8,17.6,16.1,89,91,89,0.302,14.1,15.2,13.4,0.833,0.5,13,15,1.6,0.00019,0.00021,31.6,31.8,14,155,0,0.0,6.04,0.00,0.00
15min,AgWx,bigpiney,439,29MAR2020:07:30:00,17.9,15.04,19.0,18.8,17.9,19.0,17.3,89,90,88,0.309,15.2,16.2,14.6,1.841,0.8,305,21,2.4,0.00035,0.00038,31.6,31.8,14,202,0,0.0,6.04,0.00,0.00
15min,AgWx,bigpiney,439,29MAR2020:07:45:00,19.1,15.01,19.7,19.2,18.7,19.3,18.1,87,88,87,0.312,15.5,16.1,14.9,0.702,1.9,1.8,47,3.3,0.00050,0.00055,31.6,31.8,14,251,0,0.0,6.04,0.00,0.00
15min,AgWx,bigpiney,439,29MAR2020:08:00:00,20.8,14.99,21.1,20.7,20.2,20.8,19.4,86,88,85,0.324,16.7,17.3,16.1,0,0.7,102,25,2.2,0.00071,0.00076,31.6,31.7,14,302,0,0.0,6.04,0.00,0.00
15min,AgWx,bigpiney,439,29MAR2020:08:15:00,22.8,14.96,22.0,21.7,21.3,21.8,20.5,85,86,84,0.339,17.4,18.2,16.4,3.157,1.7,16,20,3.9,0.00087,0.00095,31.6,31.8,14,352,0,0.0,6.04,0.00,0.00
15min,AgWx,bigpiney,439,29MAR2020:08:30:00,24.7,14.93,22.6,22.3,22.0,22.5,21.6,83,85,81,0.334,17.7,18.2,17.2,1.863,2.2,19,19,4.1,0.00104,0.00114,31.6,31.7,14,402,0,0.0,6.04,0.00,0.00
15min,AgWx,bigpiney,439,29MAR2020:08:45:00,26.6,14.47,23.8,23.7,23.2,24.0,22.3,82,84,80,0.349,18.4,19.5,17.3,2.455,2.1,28,23,4.5,0.00126,0.00137,31.6,31.7,14,454,0,0.0,6.04,0.00,0.00
15min,AgWx,bigpiney,439,29MAR2020:09:00:00,28.4,14.45,26.4,25.7,24.5,25.8,23.5,78,82,74,0.374,18.5,20.4,17.3,3.069,2.5,29,23,4.3,0.00146,0.00160,31.6,31.7,14,508,0,0.0,6.04,0.00,0.00
15min,AgWx,bigpiney,439,29MAR2020:09:15:00,30.2,14.41,27.2,26.3,25.9,26.7,25.2,78,81,76,0.369,20.1,21.0,19.2,3.047,2.8,54,35,5.5,0.00144,0.00159,31.6,31.8,14,469,0,0.0,6.04,0.00,0.00
15min,AgWx,bigpiney,439,29MAR2020:09:30:00,31.8,14.39,27.7,27.7,26.9,27.7,26.3,74,78,69,0.361,19.6,20.8,18.4,3.201,2.1,76,45,4.3,0.00197,0.00215,31.6,31.8,14,613,0,0.0,6.04,0.00,0.00